RH
12 13 15 16 15 14 15 14 14 16 20 23 24 29 32 37 42 42 43 44 37 20 11 8 11 28 10 12 38 17 18 20 17 13 12 48 84 71 55 45 37 31 30 28
15 17 18 17 17 16 16 17 18 22 25 27 31 35 39 45 44 42 49 51 46 34 13 10 8 31 13 40 17 19 30 17 15 12 11 21 87 84 66 53 45 39 33 31
20 19 19 18 19 19 19 21 23 23 26 32 38 42 48 54 54 51 54 59 56 42 24 11 8 16 25 51 88 75 33 12 12 12 25 29 86 90 74 60 52 45 39 34
22 22 21 19 21 22 25 26 28 31 37 44 46 52 52 57 61 61 69 67 65 53 36 20 8 9 34 35 64 78 72 87 53 41 70 68 81 88 76 64 57 50 42 34
31 30 31 32 31 32 32 34 40 45 47 52 48 46 47 49 65 66 78 81 71 66 48 45 14 9 9 40 47 58 68 56 70 90 79 69 84 84 77 67 60 54 48 42
35 38 38 38 39 41 42 35 18 21 20 9 9 19 23 33 43 61 62 78 77 76 63 59 51 23 11 9 39 49 53 60 55 77 88 90 85 77 72 70 65 61 56 51
4 4 3 3 3 3 3 3 3 3 3 3 7 5 12 16 22 30 48 74 83 84 73 65 74 52 37 14 9 24 54 41 48 48 60 70 79 82 89 86 78 70 65 60
2 3 3 4 5 5 6 7 8 9 8 6 8 10 11 13 15 19 35 53 75 74 78 72 80 84 64 46 13 9 25 51 60 46 42 44 27 40 57 55 48 50 57 63
4 4 4 5 7 7 8 9 11 11 12 10 11 11 13 15 20 14 26 46 68 68 82 82 80 83 89 74 62 20 9 22 38 54 67 72 75 64 41 30 27 20 17 14
6 6 8 10 12 12 14 14 14 15 16 15 13 16 18 18 29 23 25 27 46 76 83 88 85 84 89 90 83 71 30 9 17 24 37 52 57 58 57 58 56 50 45 44
10 11 13 14 14 15 17 18 18 18 20 20 20 18 21 22 32 34 30 26 27 60 84 89 86 84 96 98 94 90 83 63 13 8 12 18 23 32 40 46 51 52 50 44
20 18 18 24 24 22 27 27 28 26 28 32 29 21 23 24 26 28 30 37 34 48 63 72 81 85 100 100 100 100 99 96 92 41 10 7 8 8 7 8 8 8 8 9
35 28 24 28 27 27 31 38 42 40 40 34 29 26 26 23 23 23 23 25 27 33 54 55 60 71 81 87 95 97 99 100 99 99 98 52 11 8 9 10 9 9 9 9
44 45 43 38 42 41 41 48 47 44 41 37 34 31 29 28 26 24 21 17 21 24 28 32 44 59 62 56 56 72 77 84 96 100 98 98 98 79 34 17 14 12 10 10
47 42 47 48 51 50 45 48 48 43 40 38 35 33 32 30 28 23 17 13 13 13 12 12 16 22 35 42 42 42 44 44 63 88 97 97 92 90 90 95 92 73 33 20
48 47 48 45 51 49 41 49 50 50 48 44 39 38 38 33 29 26 18 14 12 12 10 10 9 10 11 16 19 22 32 39 46 65 89 92 90 88 88 89 91 94 88 83
46 58 55 42 49 47 40 46 46 45 46 43 43 43 44 39 32 29 27 23 19 17 16 14 11 10 9 8 10 13 17 20 27 37 46 58 73 80 90 96 94 99 96 90
58 74 70 57 58 45 50 57 58 58 52 50 46 44 42 40 37 35 33 30 27 24 22 20 17 14 12 10 8 8 8 10 16 27 31 32 32 37 46 57 65 74 85 94
41 62 74 68 69 56 52 65 68 71 68 64 61 57 53 50 46 42 37 32 29 27 25 24 22 21 19 16 12 8 6 4 3 3 4 4 4 6 16 24 28 34 42 61
31 41 58 58 68 51 51 68 67 68 63 60 58 57 54 51 47 42 37 31 29 26 22 20 16 14 14 12 10 8 5 3 3 2 2 2 2 2 2 2 4 5 8 20
25 34 42 51 66 38 47 57 56 55 55 52 48 48 49 46 38 32 28 26 24 22 17 9 6 6 4 4 4 4 4 2 2 2 1 1 1 1 2 2 2 2 3 4
15 20 18 27 28 24 24 25 30 36 32 30 25 22 23 22 18 14 11 10 9 8 7 5 4 3 2 2 2 2 2 2 2 1 1 1 1 1 1 1 1 1 2 2
4 6 7 7 7 10 10 15 17 18 15 12 13 13 10 6 5 4 4 4 3 3 3 3 2 2 3 3 2 2 2 2 2 2 2 2 2 2 2 1 1 1 1 1
2 2 4 5 4 6 6 6 8 8 6 6 6 6 5 5 4 4 4 4 4 3 3 3 3 3 3 3 3 3 2 2 2 2 2 2 2 2 2 2 2 2 2 2
2 2 5 3 4 6 6 6 6 5 5 5 6 6 7 7 6 6 6 5 5 4 4 4 4 4 4 5 5 5 4 3 4 3 3 3 2 2 2 2 2 2 2 2
4 4 7 4 6 6 4 5 5 6 7 8 8 8 8 8 8 8 8 8 8 9 8 8 7 6 7 9 10 10 9 11 7 7 8 9 6 5 4 3 3 4 3 2
Wind_Speed
6 9 11 13 16 19 22 25 27 30 34 35 38 40 39 41 40 43 44 47 51 54 57 61 64 61 52 23 12 7 25 30 33 35 41 48 47 47 49 49 49 49 47 46
10 12 15 18 21 25 27 29 31 33 35 38 40 40 39 41 42 44 44 44 47 51 52 56 59 56 50 40 29 11 7 23 28 27 28 39 43 41 43 45 46 46 46 45
14 17 20 23 26 29 32 32 33 35 36 41 43 41 40 44 43 42 42 42 45 46 48 49 52 53 44 33 29 26 18 3 16 23 26 31 31 35 38 39 41 42 43 43
19 22 25 28 30 31 33 35 37 39 40 41 40 42 41 41 39 39 37 38 41 42 44 43 44 47 42 33 25 25 26 13 3 9 11 18 23 28 32 34 36 36 39 41
24 26 29 31 33 35 37 39 41 42 41 38 37 38 33 36 34 34 37 36 37 37 38 39 38 39 41 32 24 21 18 15 11 7 12 14 19 25 29 32 33 35 36 38
26 29 31 33 34 35 36 36 37 37 38 36 34 35 32 32 35 34 36 35 31 33 33 33 34 34 35 35 25 18 14 12 11 10 6 14 21 26 30 33 34 35 35 37
25 28 29 31 33 34 35 37 39 40 40 38 38 39 34 33 33 35 31 33 30 28 28 28 29 29 30 28 30 21 15 11 10 8 6 4 12 20 26 32 35 36 38 41
29 29 31 32 34 36 37 38 40 43 41 41 39 41 38 35 33 34 33 28 28 26 24 23 26 26 25 25 22 23 18 14 11 11 11 11 12 11 13 15 17 22 25 29
35 33 35 37 37 39 41 41 42 44 45 46 43 41 43 41 31 34 37 29 28 29 25 23 24 27 25 23 21 18 16 14 13 13 12 13 14 14 14 16 19 22 24 26
39 39 37 40 42 44 44 44 43 45 48 48 46 39 38 45 39 35 32 33 28 28 26 26 27 28 26 24 21 20 17 14 14 15 16 16 16 16 16 16 18 19 21 23
46 47 45 45 46 46 44 41 41 42 42 45 48 36 42 43 44 41 40 37 34 30 31 32 30 29 28 27 26 23 22 20 18 17 19 21 21 21 22 23 25 26 28 30
47 51 47 42 43 44 38 35 37 40 38 36 43 40 35 40 44 42 41 37 34 32 34 37 34 33 33 31 30 29 27 27 26 25 25 23 23 23 23 23 24 25 27 31
45 47 46 39 38 38 36 33 35 40 39 35 45 39 37 39 43 42 42 42 38 37 37 37 38 36 31 33 35 34 33 32 32 31 31 32 33 32 33 33 33 32 32 32
48 45 44 42 38 40 40 36 39 44 46 47 43 47 39 45 46 45 43 41 38 38 37 37 40 41 39 38 41 42 42 41 40 39 38 38 37 39 41 42 41 41 40 38
48 48 46 42 42 43 46 43 43 47 47 53 50 54 54 54 52 48 43 42 43 43 41 37 41 43 45 46 46 47 46 46 45 45 46 45 45 44 43 43 42 44 45 44
49 49 46 46 44 47 50 48 52 53 54 55 59 58 60 57 55 52 49 50 49 46 44 43 44 45 47 48 50 50 51 49 50 49 49 51 51 52 50 49 49 47 46 45
54 50 51 55 53 54 56 56 59 60 61 62 61 61 61 59 57 57 58 56 57 57 57 55 52 51 52 53 53 55 54 55 55 55 56 57 58 58 56 56 54 53 53 52
58 58 61 63 63 65 67 66 65 63 65 65 64 64 62 62 61 60 63 62 61 61 61 60 60 60 59 59 59 60 60 58 59 58 59 60 62 63 65 64 62 60 60 59
63 64 66 67 68 69 69 71 69 70 70 69 67 68 69 68 66 66 68 65 64 65 64 63 63 65 66 67 66 63 63 64 64 65 65 64 61 60 61 63 64 65 65 66
68 67 66 66 67 69 69 68 67 66 67 69 69 68 68 68 69 65 66 67 67 67 66 66 63 63 67 67 66 65 64 61 60 60 61 60 60 59 60 61 63 64 66 67
66 67 67 65 66 71 69 68 69 69 68 69 70 70 67 68 68 66 66 69 69 67 64 61 60 60 62 63 65 66 66 66 65 61 58 57 57 57 57 57 58 61 62 65
61 62 61 61 64 66 65 69 67 66 67 67 69 68 66 64 63 63 61 62 64 67 66 65 65 63 62 62 64 63 64 65 65 64 62 59 57 57 57 58 59 61 61 62
61 60 62 65 62 61 60 61 63 65 68 70 66 63 60 60 61 62 63 64 64 64 66 66 65 63 62 61 62 61 60 61 61 61 61 61 60 58 58 59 61 62 63 64
64 66 60 55 58 54 56 58 59 64 65 66 65 63 63 63 64 65 65 66 66 66 65 64 65 64 63 63 63 61 61 60 58 57 56 56 55 55 57 58 58 60 62 63
65 67 56 64 61 60 60 59 62 64 65 65 65 65 64 65 64 66 66 65 67 66 63 63 63 63 62 61 57 56 56 56 54 51 50 49 50 50 51 52 54 53 54 55
59 65 62 68 63 66 69 69 68 66 65 64 63 63 65 67 68 67 66 65 65 64 62 61 60 58 53 49 45 45 47 46 45 45 43 42 43 42 44 46 46 48 47 46
Wind_Direction
273 292 303 303 308 304 303 304 305 311 315 315 315 321 326 327 327 325 332 336 339 342 350 357 4 9 17 16 10 278 231 230 232 236 234 227 230 234 236 236 236 238 240 242
288 297 307 309 308 307 305 308 311 311 311 316 317 318 323 321 320 325 332 337 339 341 348 357 5 11 19 35 36 27 244 233 235 237 242 233 228 234 238 239 239 239 241 244
303 308 308 308 307 307 307 307 307 307 309 313 313 315 317 321 323 325 331 336 338 340 347 356 3 10 19 34 38 37 40 328 245 237 234 232 231 235 239 240 240 241 242 245
308 305 304 303 304 303 304 304 305 306 307 310 313 317 322 322 324 324 330 332 334 339 346 354 1 9 14 29 45 43 31 19 24 218 221 228 233 235 236 238 239 239 241 244
304 304 304 303 303 303 302 303 304 306 309 313 315 314 321 320 324 327 327 329 331 335 340 349 357 4 11 13 25 27 24 27 20 269 223 218 226 232 234 236 239 240 241 243
303 302 301 301 302 302 303 306 309 310 309 311 313 314 321 322 326 327 325 325 330 329 334 343 351 354 2 7 3 7 7 12 4 10 271 242 237 236 236 236 238 241 243 245
307 305 305 305 306 306 306 307 307 307 309 312 314 314 320 319 318 320 323 323 326 323 326 332 342 346 350 356 2 349 344 337 333 343 349 322 263 257 250 244 244 245 244 244
298 299 300 301 302 303 304 305 307 307 308 309 310 312 315 314 314 313 312 316 316 314 311 318 328 335 338 342 347 356 336 325 317 311 299 279 259 250 247 253 259 257 258 262
297 297 300 299 301 302 302 305 306 307 305 307 307 309 310 314 310 311 310 310 314 313 306 302 309 316 323 327 329 332 339 319 314 302 294 288 281 269 259 255 252 252 254 257
296 296 299 302 303 303 303 304 304 303 303 303 304 308 310 304 309 306 299 300 307 306 305 302 304 305 306 309 313 312 309 310 298 292 288 282 277 273 269 266 264 266 267 266
298 297 298 297 297 297 297 299 298 297 300 304 303 309 309 307 306 306 303 303 304 304 300 300 300 299 298 297 297 298 295 291 280 281 277 274 270 267 266 266 267 268 267 265
299 297 299 299 298 296 298 299 297 297 301 308 305 320 317 306 301 304 305 305 304 303 298 297 297 295 293 292 290 290 290 287 283 275 269 265 265 264 262 264 265 266 267 268
303 303 305 303 299 298 298 302 303 300 299 309 299 313 310 304 305 309 308 307 304 300 293 295 297 296 293 291 288 285 283 282 280 278 274 268 264 261 262 267 266 265 268 273
296 297 299 300 299 297 297 299 301 296 298 297 308 300 304 302 303 304 307 303 301 296 296 299 294 292 290 285 283 283 284 281 276 274 272 271 270 267 266 267 267 267 268 270
290 292 290 288 291 291 290 293 293 291 294 291 296 295 300 301 302 306 306 297 292 293 292 289 288 287 285 285 285 283 280 278 275 272 272 271 270 269 269 268 268 268 268 266
293 291 288 286 286 288 288 291 287 288 289 290 288 293 295 294 296 300 299 297 295 293 293 293 289 290 288 285 284 283 281 278 276 276 272 269 269 270 268 268 268 267 268 268
292 287 287 290 289 285 288 287 287 286 287 286 287 287 291 293 291 292 292 292 292 295 295 294 292 290 288 286 284 282 280 278 276 273 271 272 272 271 269 270 269 267 266 265
288 287 286 288 287 287 291 293 293 293 289 288 288 290 290 290 291 293 291 290 291 291 290 289 289 288 287 285 284 282 280 278 275 273 270 269 270 271 272 270 270 270 269 267
285 284 286 287 287 288 289 288 289 290 290 291 292 290 290 292 293 295 294 293 292 290 289 288 288 286 283 283 282 281 279 279 278 277 276 275 274 272 269 270 269 267 265 266
290 289 289 290 290 290 289 289 287 287 285 288 287 288 289 289 289 289 289 290 290 290 290 289 286 284 283 283 282 282 282 281 279 278 277 276 275 272 270 269 267 266 265 263
289 289 290 291 290 290 291 291 289 290 290 287 288 289 288 288 290 290 288 288 289 287 285 286 287 286 285 285 285 284 284 285 284 282 278 274 272 269 267 264 262 262 262 262
290 289 290 288 287 289 288 289 291 292 292 292 291 291 293 293 291 290 290 288 288 288 288 288 288 287 287 285 283 283 282 281 280 280 278 276 272 270 267 264 261 260 258 258
290 289 289 286 291 288 288 289 287 287 287 288 291 292 292 291 290 289 288 288 288 289 289 289 289 289 288 285 283 282 280 279 278 278 277 276 274 272 269 266 263 261 260 258
290 289 288 289 286 284 282 280 280 281 285 287 288 289 288 288 287 287 287 288 288 288 288 288 288 287 285 285 285 284 281 280 280 278 278 276 274 272 271 269 266 265 264 263
292 291 293 285 288 284 282 282 281 281 283 285 286 287 287 285 285 285 286 286 286 287 287 286 286 286 287 287 288 287 284 284 285 284 283 282 279 275 274 274 272 271 270 269
293 289 288 286 282 281 284 283 284 284 283 282 282 283 284 285 285 285 285 286 286 287 287 287 289 291 292 289 288 285 284 284 283 282 283 283 282 281 279 274 271 273 271 270